TimeEST,TemperatureF,Dew PointF,Humidity,Sea Level PressureIn,VisibilityMPH,Wind Direction,Wind SpeedMPH,Gust SpeedMPH,PrecipitationIn,Events,Conditions,WindDirDegrees,DateUTC
12:53 AM,69.1,60.1,73,30.16,10.0,ESE,6.9,-,N/A,,Partly Cloudy,110,2014-02-19 05:53:00
1:53 AM,69.1,61.0,75,30.14,10.0,East,3.5,-,N/A,,Partly Cloudy,80,2014-02-19 06:53:00
2:53 AM,69.1,62.1,78,30.12,10.0,SE,5.8,-,N/A,,Partly Cloudy,130,2014-02-19 07:53:00
3:53 AM,70.0,62.1,76,30.11,10.0,ESE,6.9,-,N/A,,Partly Cloudy,120,2014-02-19 08:53:00
4:53 AM,69.1,61.0,75,30.12,10.0,East,3.5,-,N/A,,Partly Cloudy,90,2014-02-19 09:53:00
5:53 AM,68.0,61.0,78,30.13,10.0,Calm,Calm,-,N/A,,Scattered Clouds,0,2014-02-19 10:53:00
6:53 AM,68.0,62.1,81,30.15,10.0,East,4.6,-,N/A,,Scattered Clouds,100,2014-02-19 11:53:00
7:53 AM,73.0,64.0,73,30.17,10.0,ESE,6.9,-,N/A,,Mostly Cloudy,120,2014-02-19 12:53:00
8:53 AM,75.9,63.0,64,30.17,10.0,East,11.5,-,N/A,,Mostly Cloudy,90,2014-02-19 13:53:00
9:53 AM,75.9,61.0,60,30.18,10.0,SE,13.8,21.9,N/A,,Mostly Cloudy,130,2014-02-19 14:53:00
10:53 AM,78.1,63.0,60,30.18,10.0,SE,12.7,-,N/A,,Mostly Cloudy,130,2014-02-19 15:53:00
11:53 AM,79.0,62.1,56,30.17,10.0,ESE,11.5,-,N/A,,Mostly Cloudy,120,2014-02-19 16:53:00
12:53 PM,79.0,62.1,56,30.15,10.0,ESE,12.7,-,N/A,,Mostly Cloudy,120,2014-02-19 17:53:00
1:53 PM,80.1,62.1,54,30.12,10.0,East,11.5,-,N/A,,Scattered Clouds,100,2014-02-19 18:53:00
2:53 PM,80.1,62.1,54,30.10,10.0,SE,11.5,-,N/A,,Scattered Clouds,130,2014-02-19 19:53:00
3:53 PM,78.1,64.0,62,30.10,10.0,ESE,10.4,-,N/A,,Scattered Clouds,120,2014-02-19 20:53:00
4:53 PM,77.0,63.0,62,30.10,10.0,SE,12.7,-,N/A,,Scattered Clouds,130,2014-02-19 21:53:00
5:53 PM,75.0,63.0,66,30.11,10.0,ESE,10.4,-,N/A,,Scattered Clouds,110,2014-02-19 22:53:00
6:53 PM,73.9,64.0,71,30.11,10.0,ESE,9.2,-,N/A,,Partly Cloudy,110,2014-02-19 23:53:00
7:53 PM,73.9,64.9,73,30.12,10.0,East,10.4,-,N/A,,Partly Cloudy,100,2014-02-20 00:53:00
8:53 PM,73.0,66.0,79,30.14,10.0,East,9.2,-,N/A,,Scattered Clouds,100,2014-02-20 01:53:00
9:53 PM,73.0,66.0,79,30.15,10.0,East,6.9,-,N/A,,Scattered Clouds,90,2014-02-20 02:53:00
10:53 PM,73.0,66.0,79,30.14,10.0,East,9.2,-,N/A,,Scattered Clouds,90,2014-02-20 03:53:00
11:53 PM,73.0,66.0,79,30.15,10.0,East,6.9,-,N/A,,Scattered Clouds,80,2014-02-20 04:53:00